Regional Weather Roundup
Issued by NWS

Home | Current Version | Previous Version | Text Only | Print | Product List | Glossary Off
Versions: 1 2 3 4 5 6 7 8 9 10 11 12 13 14 15 16 17 18 19 20 21 22 23 24 25 26 27 28 29 30 31 32 33 34 35 36 37 38 39 40 41 42 43 44 45 46 47 48 49 50

000
ASUS43 KBIS 302210
RWRND

NORTH DAKOTA REGIONAL WEATHER ROUNDUP
NATIONAL WEATHER SERVICE BISMARCK ND
500 PM CDT THU JUL 30 2015

NOTE: "FAIR" INDICATES FEW OR NO CLOUDS BELOW 12,000 FEET WITH NO
SIGNIFICANT WEATHER AND/OR OBSTRUCTIONS TO VISIBILITY.


NDZ001>003-009>011-017-302300-
NORTHWEST NORTH DAKOTA

CITY           SKY/WX    TMP DP  RH WIND       PRES   REMARKS
WILLISTON      MOSUNNY   84  43  23 NW14      30.15F
MINOT          SUNNY     81  47  30 NW18G28   30.11S
MINOT AFB      SUNNY     83  46  27 NW23G31   30.09F
$$

NDZ018>021-031>035-040>046-302300-
SOUTHWEST NORTH DAKOTA

CITY           SKY/WX    TMP DP  RH WIND       PRES   REMARKS
BISMARCK       SUNNY     84  44  24 NW18G25   30.13F
DICKINSON      MOSUNNY   84  44  24 NW12      30.16F
GARRISON         N/A     81  49  32 NW17G24   30.13F
HETTINGER ARPT SUNNY     87  41  19 W8        30.18F
$$

NDZ004>008-012>016-024-026-027-054-302300-
NORTHEAST NORTH DAKOTA

CITY           SKY/WX    TMP DP  RH WIND       PRES   REMARKS
GRAND FORKS    MOSUNNY   82  54  37 NW15G23   29.97F
GRND FRKS AFB  MOSUNNY   80  54  39 NW16G23   29.99F
DEVILS LAKE    SUNNY     81  52  36 W22G31    30.03F
$$

NDZ022-023-025-028>030-036>039-047>053-302300-
SOUTHEAST NORTH DAKOTA

CITY           SKY/WX    TMP DP  RH WIND       PRES   REMARKS
FARGO          SUNNY     83  53  35 NW21G28   30.02F
JAMESTOWN      SUNNY     81  49  32 NW17      30.07F
$$




USA.gov is the U.S. government's official web portal to all federal, state and local government web resources and services.